Simultaneous Nadir Overpasses (SNOs) Predictions

Prediction of SNOs between GOES-16 and METOP-B Satellite Orbit:

Table of predicted SNOs for the next 14.0 days since TLE Epoch: 11/29/2019
Index Date Time (GOES-16) GOES-16 Lat,Lon METOP-B Lat,Lon Distance(km) Time Diff (sec)
1 11/30/2019 14:34:34 0.02, -75.22 0.28, -76.45 140.11 80
2 12/01/2019 14:16:36 0.03, -75.23 -0.84, -71.46 429.93 80
3 12/03/2019 02:32:56 -0.03, -75.23 -0.23, -76.04 92.69 80
4 12/04/2019 02:12:18 -0.04, -75.25 0.89, -71.05 477.70 80
5 12/05/2019 14:33:51 0.04, -75.27 0.11, -75.62 39.14 80
6 12/08/2019 02:32:14 -0.04, -75.31 0.00, -75.22 10.50 80
7 12/10/2019 14:30:28 0.04, -75.36 -0.08, -74.79 64.99 80
8 12/12/2019 02:46:49 -0.04, -75.38 -0.94, -79.38 456.26 80
9 12/13/2019 02:28:50 -0.04, -75.40 0.19, -74.39 114.94 80




NCC Satellite Simultaneous Nadir Overpasses (SNOs) Prediction Service
